Location: Lake Sonoma
(38.7200°N, 123.0564°W)
Time: 16:57:04
(UTC-07:00)

ISS - All Passes

Search period start: 22 October 2014 00:00
Search period end: 01 November 2014 00:00
Orbit: 413 x 416 km, 51.6° (Epoch: 22 October)

Date Brightness Start Highest point End Pass type
(mag) Time Alt. Az. Time Alt. Az. Time Alt. Az.
22 Oct - 13:18:21 10° SSW 13:21:11 26° SE 13:24:03 10° ENE daylight
22 Oct - 14:54:46 10° W 14:57:48 32° NNW 15:00:52 10° NE daylight
22 Oct - 16:34:22 10° NNW 16:35:19 11° NNW 16:36:16 10° N daylight
22 Oct - 18:12:55 10° N 18:13:17 10° N 18:13:40 10° NNE daylight
22 Oct - 19:47:59 10° NNW 19:50:54 27° NNE 19:53:47 10° E visible
22 Oct - 21:24:33 10° WNW 21:27:38 35° SW 21:30:42 10° SSE visible
23 Oct - 12:30:21 10° SSE 12:32:16 15° SE 12:34:12 10° E daylight
23 Oct - 14:05:22 10° WSW 14:08:38 54° NW 14:11:55 10° NE daylight
23 Oct - 15:44:13 10° NW 15:45:56 13° NNW 15:47:39 10° NNE daylight
23 Oct - 18:59:09 10° NNW 19:01:37 19° NNE 19:04:05 10° ENE visible
23 Oct - 20:35:17 10° NW 20:38:36 68° SW 20:41:54 10° SE visible
24 Oct - 13:16:10 10° SW 13:19:29 82° SE 13:22:50 10° NE daylight
24 Oct - 14:54:14 10° WNW 14:56:32 17° NNW 14:58:51 10° NNE daylight
24 Oct - 18:10:20 10° NNW 18:12:14 14° NNE 18:14:08 10° NE daylight
24 Oct - 19:46:08 10° NW 19:49:28 64° NE 19:52:46 10° ESE visible
24 Oct - 21:24:19 10° WSW 21:25:45 12° SW 21:27:11 10° SSW visible
25 Oct - 12:27:13 10° SSW 12:30:22 42° SE 12:33:33 10° ENE daylight
25 Oct - 14:04:24 10° W 14:07:10 24° NNW 14:09:57 10° NNE daylight
25 Oct - 17:21:35 10° N 17:22:46 11° NNE 17:23:58 10° NE daylight
25 Oct - 18:57:05 10° NW 19:00:13 37° NNE 19:03:21 10° ESE visible
25 Oct - 20:34:05 10° WNW 20:36:45 22° SW 20:39:25 10° S visible
26 Oct - 11:38:37 10° S 11:41:17 23° SE 11:43:58 10° ENE daylight
26 Oct - 13:14:43 10° WSW 13:17:50 36° NNW 13:20:57 10° NE daylight
26 Oct - 14:54:08 10° NNW 14:55:17 11° NNW 14:56:26 10° N daylight
26 Oct - 18:08:04 10° NNW 18:10:52 24° NNE 18:13:40 10° E daylight
26 Oct - 19:44:29 10° WNW 19:47:39 41° SW 19:50:48 10° SSE visible
27 Oct - 10:50:44 10° SSE 10:52:13 13° SE 10:53:42 10° ESE daylight
27 Oct - 12:25:13 10° WSW 12:28:31 63° NW 12:31:49 10° NE daylight
27 Oct - 14:03:52 10° NW 14:05:44 14° NNW 14:07:37 10° NNE daylight
27 Oct - 17:19:05 10° NNW 17:21:25 17° NNE 17:23:44 10° ENE daylight
27 Oct - 18:55:07 10° NW 18:58:27 81° SW 19:01:46 10° SE visible
28 Oct - 11:35:56 10° SW 11:39:14 70° SE 11:42:33 10° NE daylight
28 Oct - 13:13:46 10° WNW 13:16:12 19° NNW 13:18:39 10° NNE daylight
28 Oct - 16:30:09 10° NNW 16:31:52 13° NNE 16:33:35 10° NE daylight
28 Oct - 18:05:51 10° NW 18:09:08 55° NE 18:12:25 10° ESE daylight
28 Oct - 19:43:36 10° W 19:45:29 14° SW 19:47:22 10° SSW visible
29 Oct - 10:46:55 10° SSW 10:49:59 35° SE 10:53:03 10° ENE daylight
29 Oct - 12:23:50 10° W 12:26:42 26° NNW 12:29:35 10° NNE daylight
29 Oct - 14:04:06 10° NNW 14:04:17 10° N 14:04:29 10° N daylight
29 Oct - 15:41:18 10° N 15:42:14 11° NNE 15:43:10 10° NNE daylight
29 Oct - 17:16:40 10° NW 17:19:43 32° NNE 17:22:46 10° E daylight
29 Oct - 18:53:29 10° WNW 18:56:19 26° SW 18:59:08 10° SSE visible
30 Oct - 09:58:18 10° S 10:00:45 19° SE 10:03:13 10° E daylight
30 Oct - 11:34:03 10° WSW 11:37:13 41° NNW 11:40:24 10° NE daylight
30 Oct - 13:13:15 10° NW 13:14:36 12° NNW 13:15:57 10° N daylight
30 Oct - 16:27:31 10° NNW 16:30:12 22° NNE 16:32:52 10° E daylight
30 Oct - 18:03:49 10° WNW 18:07:03 49° SW 18:10:16 10° SSE daylight
31 Oct - 09:10:55 10° SE 09:11:33 10° SE 09:12:10 10° ESE daylight
31 Oct - 10:44:27 10° SW 10:47:46 74° NW 10:51:06 10° NE daylight
31 Oct - 12:22:53 10° WNW 12:24:55 15° NNW 12:26:57 10° NNE daylight
31 Oct - 15:38:24 10° NNW 15:40:34 16° NNE 15:42:44 10° ENE daylight
31 Oct - 17:14:20 10° NW 17:17:40 85° NE 17:20:59 10° SE daylight
